Погода в Больших Тайцы

Россия / Санкт-Петербург и Ленинградская область     59°39′33″N   30°06′24″E
темп.,
°C
ветер,
м/с
пор.,
м/с
влажн.,
%
обл.,
%
осадки,
мм/ч
давл.,
гПа
погр.,
м
3 августа, вт
вт300:00+15сз5799100 8.4 993401
03:00+14зсз91595100 13.8 995843
06:00+12зюз5129634 1.4 997500
09:00+15зюз712847 1.4 998738
12:00+18зюз7106419 0.3 9991518
15:00+19зюз710686 1.7 10011500
18:00+16зсз6108131 1.3 10031048
21:00+13з4108411 1.5 1005454
4 августа, ср
ср400:00+10зюз38945 0.1 1008161
03:00+10зюз49895 0.1 1009168
06:00+10зюз37885 0.0 1011139
09:00+16зюз46595 0.0 1012766
12:00+18з4549100 0.1 10132037
15:00+17зсз355191 0.2 10141601
18:00+18зсз46441 0.0 10141739
21:00+12зсз23724 0.0 101642
5 августа, чт
чт500:00+10зюз22815 0.0 101720
03:00+10юз22765 0.0 101722
06:00+10юз21705 0.0 101713
09:00+16ююв11515 0.0 1018289
12:00+20юв11405 0.0 10171523
15:00+21св223716 0.0 10172072
18:00+19св454947 0.0 1017894
21:00+15в2769100 0.0 1017207
6 августа, пт
пт600:00+14в256783 0.0 1017107
03:00+12всв237243 0.0 101765
06:00+11в228112 0.0 101820
09:00+17св47625 0.0 1017418
12:00+21всв563919 0.0 10172395
15:00+20всв5641100 0.0 10161833
18:00+20всв57495 0.0 10161625
21:00+15св411634 0.0 1017342
7 августа, сб
сб700:00+12всв310827 0.0 1017245
03:00+11всв4157636 0.0 1018566
06:00+12всв6157594 0.0 1017765
09:00+14всв61370100 0.0 1016725
12:00+17в71064100 0.1 10161123
15:00+14всв51390100 2.0 1016691
18:00+15всв41288100 0.5 1015501
21:00+15в61487100 0.7 1015820